Time,TemperatureF,DewpointF,PressureIn,WindDirection,WindDirectionDegrees,WindSpeedMPH,WindSpeedGustMPH,Humidity,HourlyPrecipIn,Conditions,Clouds,dailyrainin,SoftwareType,DateUTC
2013-02-08 00:01:00,61.4,47.4,30.03,NE,54,1.0,4.0,60,0.00,,,0.00,WeatherTracker,2013-02-08 06:01:00,
2013-02-08 00:06:00,61.2,47.6,30.03,NW,314,0.0,4.0,61,0.00,,,0.00,WeatherTracker,2013-02-08 06:06:00,
2013-02-08 00:11:00,61.0,47.9,30.03,ENE,63,7.0,7.0,62,0.00,,,0.00,WeatherTracker,2013-02-08 06:11:00,
2013-02-08 00:16:00,60.9,47.8,30.03,NE,44,1.0,7.0,62,0.00,,,0.00,WeatherTracker,2013-02-08 06:16:00,
2013-02-08 00:21:00,60.8,47.7,30.03,NE,41,1.0,7.0,62,0.00,,,0.00,WeatherTracker,2013-02-08 06:21:00,
2013-02-08 00:26:00,60.8,47.7,30.04,NE,40,0.0,6.0,62,0.00,,,0.00,WeatherTracker,2013-02-08 06:26:00,
2013-02-08 00:31:00,60.5,47.8,30.04,NE,40,2.0,6.0,63,0.00,,,0.00,WeatherTracker,2013-02-08 06:31:00,
2013-02-08 00:36:00,60.4,47.7,30.04,NE,49,4.0,7.0,63,0.00,,,0.00,WeatherTracker,2013-02-08 06:36:00,
2013-02-08 00:41:00,60.3,47.6,30.04,NNE,25,5.0,7.0,63,0.00,,,0.00,WeatherTracker,2013-02-08 06:41:00,
2013-02-08 00:46:00,60.2,47.6,30.04,ENE,57,1.0,8.0,63,0.00,,,0.00,WeatherTracker,2013-02-08 06:46:00,
2013-02-08 00:51:00,60.0,47.4,30.04,NNE,23,4.0,8.0,63,0.00,,,0.00,WeatherTracker,2013-02-08 06:51:00,
2013-02-08 00:57:00,59.8,47.2,30.05,NE,42,2.0,6.0,63,0.00,,,0.00,WeatherTracker,2013-02-08 06:57:00,
2013-02-08 01:02:00,59.6,47.4,30.05,NNE,28,3.0,6.0,64,0.00,,,0.00,WeatherTracker,2013-02-08 07:02:00,
2013-02-08 01:07:00,59.4,46.8,30.04,ENE,60,2.0,5.0,63,0.00,,,0.00,WeatherTracker,2013-02-08 07:07:00,
2013-02-08 01:12:00,59.3,47.1,30.04,NE,47,4.0,5.0,64,0.00,,,0.00,WeatherTracker,2013-02-08 07:12:00,
2013-02-08 01:17:00,59.3,47.1,30.04,NE,51,1.0,7.0,64,0.00,,,0.00,WeatherTracker,2013-02-08 07:17:00,
2013-02-08 01:22:00,59.1,46.9,30.04,NE,38,5.0,7.0,64,0.00,,,0.00,WeatherTracker,2013-02-08 07:22:00,
2013-02-08 01:27:00,59.0,46.8,30.04,North,353,2.0,6.0,64,0.00,,,0.00,WeatherTracker,2013-02-08 07:27:00,
2013-02-08 01:32:00,58.8,46.6,30.05,North,4,0.0,6.0,64,0.00,,,0.00,WeatherTracker,2013-02-08 07:32:00,
2013-02-08 01:37:00,58.6,46.9,30.05,NE,54,3.0,6.0,65,0.00,,,0.00,WeatherTracker,2013-02-08 07:37:00,
2013-02-08 01:42:00,58.4,46.7,30.05,ENE,58,0.0,4.0,65,0.00,,,0.00,WeatherTracker,2013-02-08 07:42:00,
2013-02-08 01:47:00,58.2,46.5,30.05,ENE,71,5.0,5.0,65,0.00,,,0.00,WeatherTracker,2013-02-08 07:47:00,
2013-02-08 01:52:00,58.0,46.3,30.05,NE,51,2.0,5.0,65,0.00,,,0.00,WeatherTracker,2013-02-08 07:52:00,
2013-02-08 01:57:00,57.9,46.2,30.05,NE,43,5.0,6.0,65,0.00,,,0.00,WeatherTracker,2013-02-08 07:57:00,
2013-02-08 02:02:00,57.8,46.1,30.05,NNE,29,5.0,6.0,65,0.00,,,0.00,WeatherTracker,2013-02-08 08:02:00,
2013-02-08 02:07:00,57.9,46.2,30.05,NE,49,0.0,10.0,65,0.00,,,0.00,WeatherTracker,2013-02-08 08:07:00,
2013-02-08 02:13:00,57.8,46.1,30.05,North,356,5.0,9.0,65,0.00,,,0.00,WeatherTracker,2013-02-08 08:13:00,
2013-02-08 02:18:00,57.7,45.6,30.05,NE,51,5.0,9.0,64,0.00,,,0.00,WeatherTracker,2013-02-08 08:18:00,
2013-02-08 02:23:00,57.7,45.6,30.04,ENE,75,3.0,12.0,64,0.00,,,0.00,WeatherTracker,2013-02-08 08:23:00,
2013-02-08 02:28:00,57.7,45.6,30.04,NE,42,3.0,12.0,64,0.00,,,0.00,WeatherTracker,2013-02-08 08:28:00,
2013-02-08 02:33:00,57.6,45.5,30.04,NNE,16,5.0,11.0,64,0.00,,,0.00,WeatherTracker,2013-02-08 08:33:00,
2013-02-08 02:38:00,57.4,45.7,30.04,NE,51,1.0,11.0,65,0.00,,,0.00,WeatherTracker,2013-02-08 08:38:00,
2013-02-08 02:43:00,57.2,45.5,30.04,North,5,0.0,8.0,65,0.00,,,0.00,WeatherTracker,2013-02-08 08:43:00,
2013-02-08 02:48:00,57.0,45.8,30.05,ENE,62,1.0,8.0,66,0.00,,,0.00,WeatherTracker,2013-02-08 08:48:00,
2013-02-08 02:53:00,56.7,45.5,30.05,NW,321,2.0,6.0,66,0.00,,,0.00,WeatherTracker,2013-02-08 08:53:00,
2013-02-08 02:58:00,56.5,45.7,30.05,West,280,3.0,8.0,67,0.00,,,0.00,WeatherTracker,2013-02-08 08:58:00,
2013-02-08 03:03:00,56.3,45.5,30.05,NNE,27,2.0,8.0,67,0.00,,,0.00,WeatherTracker,2013-02-08 09:03:00,
2013-02-08 03:08:00,56.2,45.4,30.05,NE,51,2.0,6.0,67,0.00,,,0.00,WeatherTracker,2013-02-08 09:08:00,
2013-02-08 03:13:00,56.0,45.2,30.05,NE,36,5.0,9.0,67,0.00,,,0.00,WeatherTracker,2013-02-08 09:13:00,
2013-02-08 03:18:00,55.9,45.1,30.05,ENE,59,2.0,9.0,67,0.00,,,0.00,WeatherTracker,2013-02-08 09:18:00,
2013-02-08 03:23:00,55.6,44.8,30.05,ENE,77,1.0,9.0,67,0.00,,,0.00,WeatherTracker,2013-02-08 09:23:00,
2013-02-08 03:28:00,55.4,45.0,30.05,NE,51,5.0,6.0,68,0.00,,,0.00,WeatherTracker,2013-02-08 09:28:00,
2013-02-08 03:33:00,55.3,44.9,30.05,NNE,30,2.0,9.0,68,0.00,,,0.00,WeatherTracker,2013-02-08 09:33:00,
2013-02-08 03:38:00,55.1,44.7,30.05,NW,326,2.0,9.0,68,0.00,,,0.00,WeatherTracker,2013-02-08 09:38:00,
2013-02-08 03:43:00,54.9,44.9,30.06,NE,39,4.0,9.0,69,0.00,,,0.00,WeatherTracker,2013-02-08 09:43:00,
2013-02-08 03:49:00,54.8,44.8,30.05,NNW,330,2.0,9.0,69,0.00,,,0.00,WeatherTracker,2013-02-08 09:49:00,
2013-02-08 03:54:00,54.6,44.6,30.06,NNE,33,1.0,9.0,69,0.00,,,0.00,WeatherTracker,2013-02-08 09:54:00,
2013-02-08 03:59:00,54.5,44.5,30.06,ENE,58,4.0,9.0,69,0.00,,,0.00,WeatherTracker,2013-02-08 09:59:00,
2013-02-08 04:04:00,54.3,44.3,30.06,NE,44,3.0,8.0,69,0.00,,,0.00,WeatherTracker,2013-02-08 10:04:00,
2013-02-08 04:09:00,54.2,44.3,30.06,WNW,301,2.0,8.0,69,0.00,,,0.00,WeatherTracker,2013-02-08 10:09:00,
2013-02-08 04:14:00,54.1,44.2,30.07,ENE,65,2.0,7.0,69,0.00,,,0.00,WeatherTracker,2013-02-08 10:14:00,
2013-02-08 04:19:00,53.9,44.3,30.07,ENE,59,4.0,8.0,70,0.00,,,0.00,WeatherTracker,2013-02-08 10:19:00,
2013-02-08 04:24:00,53.8,44.2,30.07,NE,55,4.0,8.0,70,0.00,,,0.00,WeatherTracker,2013-02-08 10:24:00,
2013-02-08 04:29:00,53.7,44.2,30.07,West,276,0.0,8.0,70,0.00,,,0.00,WeatherTracker,2013-02-08 10:29:00,
2013-02-08 04:34:00,53.4,43.9,30.08,NE,42,3.0,9.0,70,0.00,,,0.00,WeatherTracker,2013-02-08 10:34:00,
2013-02-08 04:39:00,53.3,43.8,30.08,East,83,1.0,9.0,70,0.00,,,0.00,WeatherTracker,2013-02-08 10:39:00,
2013-02-08 04:44:00,53.0,43.5,30.08,NNE,13,0.0,5.0,70,0.00,,,0.00,WeatherTracker,2013-02-08 10:44:00,
2013-02-08 04:49:00,53.0,43.5,30.08,NE,46,2.0,6.0,70,0.00,,,0.00,WeatherTracker,2013-02-08 10:49:00,
2013-02-08 04:54:00,52.8,43.3,30.09,NE,56,1.0,6.0,70,0.00,,,0.00,WeatherTracker,2013-02-08 10:54:00,
2013-02-08 04:59:00,52.6,43.1,30.09,NE,42,3.0,5.0,70,0.00,,,0.00,WeatherTracker,2013-02-08 10:59:00,
2013-02-08 05:04:00,52.6,43.5,30.09,NNE,20,3.0,5.0,71,0.00,,,0.00,WeatherTracker,2013-02-08 11:04:00,
2013-02-08 05:09:00,52.5,43.0,30.09,NE,47,0.0,7.0,70,0.00,,,0.00,WeatherTracker,2013-02-08 11:09:00,
2013-02-08 05:15:00,52.4,43.3,30.09,NNE,28,1.0,7.0,71,0.00,,,0.00,WeatherTracker,2013-02-08 11:15:00,
2013-02-08 05:20:00,52.2,43.1,30.10,North,359,1.0,5.0,71,0.00,,,0.00,WeatherTracker,2013-02-08 11:20:00,
2013-02-08 05:25:00,52.1,43.0,30.10,NNE,18,0.0,7.0,71,0.00,,,0.00,WeatherTracker,2013-02-08 11:25:00,
2013-02-08 05:30:00,52.0,42.9,30.10,NE,42,1.0,7.0,71,0.00,,,0.00,WeatherTracker,2013-02-08 11:30:00,
2013-02-08 05:35:00,51.9,42.8,30.11,North,10,0.0,4.0,71,0.00,,,0.00,WeatherTracker,2013-02-08 11:35:00,
2013-02-08 05:40:00,51.7,42.6,30.11,NE,36,0.0,4.0,71,0.00,,,0.00,WeatherTracker,2013-02-08 11:40:00,
2013-02-08 05:45:00,51.6,42.5,30.12,ENE,63,1.0,5.0,71,0.00,,,0.00,WeatherTracker,2013-02-08 11:45:00,
2013-02-08 05:50:00,51.4,42.3,30.12,East,92,0.0,5.0,71,0.00,,,0.00,WeatherTracker,2013-02-08 11:50:00,
2013-02-08 05:55:00,51.3,42.6,30.12,ENE,58,1.0,5.0,72,0.00,,,0.00,WeatherTracker,2013-02-08 11:55:00,
2013-02-08 06:00:00,51.1,42.4,30.13,NE,41,1.0,5.0,72,0.00,,,0.00,WeatherTracker,2013-02-08 12:00:00,
2013-02-08 06:05:00,51.0,42.3,30.13,NE,46,0.0,4.0,72,0.00,,,0.00,WeatherTracker,2013-02-08 12:05:00,
2013-02-08 06:10:00,50.9,42.2,30.13,NNE,23,0.0,4.0,72,0.00,,,0.00,WeatherTracker,2013-02-08 12:10:00,
2013-02-08 06:15:00,50.7,42.0,30.14,NE,51,0.0,2.0,72,0.00,,,0.00,WeatherTracker,2013-02-08 12:15:00,
2013-02-08 06:20:00,50.5,42.2,30.14,NE,49,0.0,2.0,73,0.00,,,0.00,WeatherTracker,2013-02-08 12:20:00,
2013-02-08 06:25:00,50.3,42.0,30.14,NE,39,0.0,2.0,73,0.00,,,0.00,WeatherTracker,2013-02-08 12:25:00,
2013-02-08 06:30:00,50.1,41.8,30.14,NE,39,0.0,2.0,73,0.00,,,0.00,WeatherTracker,2013-02-08 12:30:00,
2013-02-08 06:35:00,50.0,42.0,30.14,NE,46,0.0,4.0,74,0.00,,,0.00,WeatherTracker,2013-02-08 12:35:00,
2013-02-08 06:40:00,49.9,41.9,30.15,ENE,59,0.0,4.0,74,0.00,,,0.00,WeatherTracker,2013-02-08 12:40:00,
2013-02-08 06:45:00,49.8,41.9,30.15,ENE,70,0.0,3.0,74,0.00,,,0.00,WeatherTracker,2013-02-08 12:45:00,
2013-02-08 06:51:00,49.7,41.8,30.15,NNE,25,0.0,3.0,74,0.00,,,0.00,WeatherTracker,2013-02-08 12:51:00,
2013-02-08 06:56:00,49.6,41.7,30.15,ENE,75,0.0,2.0,74,0.00,,,0.00,WeatherTracker,2013-02-08 12:56:00,
2013-02-08 07:01:00,49.4,41.5,30.15,ENE,73,1.0,1.0,74,0.00,,,0.00,WeatherTracker,2013-02-08 13:01:00,
2013-02-08 07:06:00,49.2,41.6,30.15,ENE,69,0.0,2.0,75,0.00,,,0.00,WeatherTracker,2013-02-08 13:06:00,
2013-02-08 07:11:00,48.8,41.2,30.15,ENE,69,0.0,2.0,75,0.00,,,0.00,WeatherTracker,2013-02-08 13:11:00,
2013-02-08 07:16:00,48.5,41.3,30.15,ENE,66,0.0,1.0,76,0.00,,,0.00,WeatherTracker,2013-02-08 13:16:00,
2013-02-08 07:21:00,48.3,41.4,30.16,East,94,1.0,1.0,77,0.00,,,0.00,WeatherTracker,2013-02-08 13:21:00,
2013-02-08 07:26:00,48.1,41.2,30.16,ENE,70,0.0,1.0,77,0.00,,,0.00,WeatherTracker,2013-02-08 13:26:00,
2013-02-08 07:31:00,47.9,41.0,30.16,East,82,0.0,1.0,77,0.00,,,0.00,WeatherTracker,2013-02-08 13:31:00,
2013-02-08 07:36:00,47.8,40.9,30.16,East,81,0.0,1.0,77,0.00,,,0.00,WeatherTracker,2013-02-08 13:36:00,
2013-02-08 07:41:00,47.7,40.8,30.17,East,81,0.0,1.0,77,0.00,,,0.00,WeatherTracker,2013-02-08 13:41:00,
2013-02-08 07:46:00,47.7,40.8,30.17,East,79,0.0,1.0,77,0.00,,,0.00,WeatherTracker,2013-02-08 13:46:00,
2013-02-08 07:51:00,47.8,40.9,30.17,ENE,57,1.0,1.0,77,0.00,,,0.00,WeatherTracker,2013-02-08 13:51:00,
2013-02-08 07:56:00,48.1,41.2,30.17,NE,56,0.0,1.0,77,0.00,,,0.00,WeatherTracker,2013-02-08 13:56:00,
2013-02-08 08:01:00,48.4,41.2,30.18,ENE,64,0.0,1.0,76,0.00,,,0.00,WeatherTracker,2013-02-08 14:01:00,
2013-02-08 08:06:00,48.6,41.4,30.18,ENE,59,1.0,1.0,76,0.00,,,0.00,WeatherTracker,2013-02-08 14:06:00,
2013-02-08 08:12:00,48.8,41.2,30.18,East,86,0.0,2.0,75,0.00,,,0.00,WeatherTracker,2013-02-08 14:12:00,
2013-02-08 08:17:00,49.3,41.7,30.18,NE,56,0.0,2.0,75,0.00,,,0.00,WeatherTracker,2013-02-08 14:17:00,
2013-02-08 08:22:00,50.0,41.7,30.19,East,79,0.0,2.0,73,0.00,,,0.00,WeatherTracker,2013-02-08 14:22:00,
2013-02-08 08:27:00,50.6,41.9,30.19,NE,51,2.0,3.0,72,0.00,,,0.00,WeatherTracker,2013-02-08 14:27:00,
2013-02-08 08:32:00,51.0,41.9,30.19,ENE,57,0.0,3.0,71,0.00,,,0.00,WeatherTracker,2013-02-08 14:32:00,
2013-02-08 08:37:00,51.5,42.0,30.18,ENE,73,1.0,3.0,70,0.00,,,0.00,WeatherTracker,2013-02-08 14:37:00,
2013-02-08 08:42:00,51.8,42.0,30.19,NE,46,1.0,4.0,69,0.00,,,0.00,WeatherTracker,2013-02-08 14:42:00,
2013-02-08 08:47:00,52.4,42.2,30.19,ENE,72,0.0,4.0,68,0.00,,,0.00,WeatherTracker,2013-02-08 14:47:00,
2013-02-08 08:52:00,52.8,42.1,30.19,ENE,67,0.0,3.0,67,0.00,,,0.00,WeatherTracker,2013-02-08 14:52:00,
2013-02-08 08:57:00,52.9,42.2,30.19,NE,52,1.0,3.0,67,0.00,,,0.00,WeatherTracker,2013-02-08 14:57:00,
2013-02-08 09:02:00,52.9,41.9,30.19,NE,53,0.0,6.0,66,0.00,,,0.00,WeatherTracker,2013-02-08 15:02:00,
2013-02-08 09:07:00,52.9,41.9,30.19,ENE,62,0.0,6.0,66,0.00,,,0.00,WeatherTracker,2013-02-08 15:07:00,
2013-02-08 09:12:00,53.4,41.9,30.19,NE,52,1.0,5.0,65,0.00,,,0.00,WeatherTracker,2013-02-08 15:12:00,
2013-02-08 09:17:00,54.1,41.8,30.19,NE,35,2.0,6.0,63,0.00,,,0.00,WeatherTracker,2013-02-08 15:17:00,
2013-02-08 09:22:00,54.7,41.5,30.19,NNE,18,2.0,6.0,61,0.00,,,0.00,WeatherTracker,2013-02-08 15:22:00,
2013-02-08 09:27:00,55.0,40.5,30.19,East,95,3.0,6.0,58,0.00,,,0.00,WeatherTracker,2013-02-08 15:27:00,
2013-02-08 09:32:00,55.4,40.4,30.20,ENE,66,1.0,6.0,57,0.00,,,0.00,WeatherTracker,2013-02-08 15:32:00,
2013-02-08 09:37:00,56.0,41.4,30.20,East,80,1.0,6.0,58,0.00,,,0.00,WeatherTracker,2013-02-08 15:37:00,
2013-02-08 09:43:00,56.5,40.5,30.20,NNE,27,2.0,6.0,55,0.00,,,0.00,WeatherTracker,2013-02-08 15:43:00,
2013-02-08 09:48:00,56.9,40.4,30.20,NE,54,1.0,6.0,54,0.00,,,0.00,WeatherTracker,2013-02-08 15:48:00,
2013-02-08 09:53:00,57.4,40.4,30.20,NE,50,4.0,6.0,53,0.00,,,0.00,WeatherTracker,2013-02-08 15:53:00,
2013-02-08 09:58:00,57.4,38.4,30.20,NNE,15,5.0,7.0,49,0.00,,,0.00,WeatherTracker,2013-02-08 15:58:00,
2013-02-08 10:03:00,57.7,38.7,30.20,East,89,6.0,7.0,49,0.00,,,0.00,WeatherTracker,2013-02-08 16:03:00,
2013-02-08 10:08:00,58.1,39.0,30.20,East,91,1.0,6.0,49,0.00,,,0.00,WeatherTracker,2013-02-08 16:08:00,
2013-02-08 10:13:00,58.5,38.3,30.20,NE,49,2.0,7.0,47,0.00,,,0.00,WeatherTracker,2013-02-08 16:13:00,
2013-02-08 10:18:00,58.6,37.9,30.20,ENE,65,2.0,8.0,46,0.00,,,0.00,WeatherTracker,2013-02-08 16:18:00,
2013-02-08 10:23:00,58.8,37.5,30.20,NNE,32,2.0,8.0,45,0.00,,,0.00,WeatherTracker,2013-02-08 16:23:00,
2013-02-08 10:28:00,58.9,37.6,30.20,NE,43,4.0,9.0,45,0.00,,,0.00,WeatherTracker,2013-02-08 16:28:00,
2013-02-08 10:33:00,59.0,37.1,30.20,ESE,105,2.0,9.0,44,0.00,,,0.00,WeatherTracker,2013-02-08 16:33:00,
2013-02-08 10:38:00,59.4,36.9,30.20,NE,42,4.0,9.0,43,0.00,,,0.00,WeatherTracker,2013-02-08 16:38:00,
2013-02-08 10:43:00,59.8,37.3,30.19,NE,36,4.0,6.0,43,0.00,,,0.00,WeatherTracker,2013-02-08 16:43:00,
2013-02-08 10:48:00,60.1,36.9,30.19,East,87,3.0,9.0,42,0.00,,,0.00,WeatherTracker,2013-02-08 16:48:00,
2013-02-08 10:53:00,60.5,36.7,30.19,East,82,2.0,9.0,41,0.00,,,0.00,WeatherTracker,2013-02-08 16:53:00,
2013-02-08 10:58:00,61.0,37.1,30.20,ENE,60,2.0,9.0,41,0.00,,,0.00,WeatherTracker,2013-02-08 16:58:00,
2013-02-08 11:03:00,61.7,37.8,30.20,East,89,1.0,6.0,41,0.00,,,0.00,WeatherTracker,2013-02-08 17:03:00,
2013-02-08 11:08:00,62.2,36.9,30.20,ENE,77,3.0,6.0,39,0.00,,,0.00,WeatherTracker,2013-02-08 17:08:00,
2013-02-08 11:14:00,62.7,37.4,30.20,ENE,70,2.0,9.0,39,0.00,,,0.00,WeatherTracker,2013-02-08 17:14:00,
2013-02-08 11:19:00,62.9,36.9,30.20,NE,49,2.0,9.0,38,0.00,,,0.00,WeatherTracker,2013-02-08 17:19:00,
2013-02-08 11:24:00,62.9,36.9,30.20,ESE,110,3.0,7.0,38,0.00,,,0.00,WeatherTracker,2013-02-08 17:24:00,
2013-02-08 11:29:00,63.2,36.5,30.20,ENE,63,7.0,7.0,37,0.00,,,0.00,WeatherTracker,2013-02-08 17:29:00,
2013-02-08 11:34:00,63.4,35.3,30.20,NE,49,5.0,11.0,35,0.00,,,0.00,WeatherTracker,2013-02-08 17:34:00,
2013-02-08 11:39:00,63.5,36.1,30.20,East,82,4.0,11.0,36,0.00,,,0.00,WeatherTracker,2013-02-08 17:39:00,
2013-02-08 11:44:00,64.1,35.2,30.19,NE,44,2.0,7.0,34,0.00,,,0.00,WeatherTracker,2013-02-08 17:44:00,
2013-02-08 11:49:00,64.4,35.4,30.19,East,86,2.0,7.0,34,0.00,,,0.00,WeatherTracker,2013-02-08 17:49:00,
2013-02-08 11:54:00,64.7,37.1,30.19,NE,48,2.0,7.0,36,0.00,,,0.00,WeatherTracker,2013-02-08 17:54:00,
2013-02-08 11:59:00,65.0,35.9,30.19,NE,48,1.0,6.0,34,0.00,,,0.00,WeatherTracker,2013-02-08 17:59:00,
2013-02-08 12:04:00,65.1,36.0,30.18,NE,45,3.0,6.0,34,0.00,,,0.00,WeatherTracker,2013-02-08 18:04:00,
2013-02-08 12:09:00,65.7,37.3,30.18,ENE,65,3.0,5.0,35,0.00,,,0.00,WeatherTracker,2013-02-08 18:09:00,
2013-02-08 12:14:00,65.7,35.8,30.18,ENE,75,7.0,7.0,33,0.00,,,0.00,WeatherTracker,2013-02-08 18:14:00,
2013-02-08 12:19:00,65.9,36.0,30.18,NE,40,4.0,7.0,33,0.00,,,0.00,WeatherTracker,2013-02-08 18:19:00,
2013-02-08 12:24:00,65.6,36.5,30.17,ENE,67,2.0,8.0,34,0.00,,,0.00,WeatherTracker,2013-02-08 18:24:00,
2013-02-08 12:29:00,65.9,36.7,30.17,ENE,68,2.0,8.0,34,0.00,,,0.00,WeatherTracker,2013-02-08 18:29:00,
2013-02-08 12:34:00,66.4,36.4,30.17,NNE,29,1.0,8.0,33,0.00,,,0.00,WeatherTracker,2013-02-08 18:34:00,
2013-02-08 12:39:00,66.8,36.0,30.17,East,79,3.0,7.0,32,0.00,,,0.00,WeatherTracker,2013-02-08 18:39:00,
2013-02-08 12:44:00,66.8,36.0,30.16,NE,43,3.0,7.0,32,0.00,,,0.00,WeatherTracker,2013-02-08 18:44:00,
2013-02-08 12:49:00,67.2,37.1,30.15,ENE,65,3.0,7.0,33,0.00,,,0.00,WeatherTracker,2013-02-08 18:49:00,
2013-02-08 12:55:00,67.3,36.4,30.15,East,95,2.0,7.0,32,0.00,,,0.00,WeatherTracker,2013-02-08 18:55:00,
2013-02-08 13:00:00,67.5,37.4,30.14,East,84,4.0,7.0,33,0.00,,,0.00,WeatherTracker,2013-02-08 19:00:00,
2013-02-08 13:05:00,67.3,35.6,30.14,ENE,75,4.0,8.0,31,0.00,,,0.00,WeatherTracker,2013-02-08 19:05:00,
2013-02-08 13:10:00,67.2,36.3,30.14,ENE,62,6.0,8.0,32,0.00,,,0.00,WeatherTracker,2013-02-08 19:10:00,
2013-02-08 13:15:00,67.8,36.1,30.14,East,89,2.0,8.0,31,0.00,,,0.00,WeatherTracker,2013-02-08 19:15:00,
2013-02-08 13:20:00,68.1,37.1,30.13,ENE,71,3.0,7.0,32,0.00,,,0.00,WeatherTracker,2013-02-08 19:20:00,
2013-02-08 13:25:00,68.4,35.7,30.13,ESE,110,6.0,11.0,30,0.00,,,0.00,WeatherTracker,2013-02-08 19:25:00,
2013-02-08 13:30:00,68.4,34.9,30.13,ENE,60,1.0,11.0,29,0.00,,,0.00,WeatherTracker,2013-02-08 19:30:00,
2013-02-08 13:35:00,68.5,35.8,30.13,East,83,2.0,10.0,30,0.00,,,0.00,WeatherTracker,2013-02-08 19:35:00,
2013-02-08 13:40:00,68.8,36.9,30.13,ENE,75,3.0,10.0,31,0.00,,,0.00,WeatherTracker,2013-02-08 19:40:00,
2013-02-08 13:45:00,69.1,35.5,30.12,NE,49,3.0,6.0,29,0.00,,,0.00,WeatherTracker,2013-02-08 19:45:00,
2013-02-08 13:50:00,69.0,35.4,30.12,NE,55,2.0,7.0,29,0.00,,,0.00,WeatherTracker,2013-02-08 19:50:00,
2013-02-08 13:55:00,69.3,35.7,30.12,ESE,104,2.0,7.0,29,0.00,,,0.00,WeatherTracker,2013-02-08 19:55:00,
2013-02-08 14:00:00,69.2,34.7,30.11,NE,53,3.0,8.0,28,0.00,,,0.00,WeatherTracker,2013-02-08 20:00:00,
2013-02-08 14:05:00,68.9,35.3,30.11,ESE,104,0.0,8.0,29,0.00,,,0.00,WeatherTracker,2013-02-08 20:05:00,
2013-02-08 14:10:00,69.2,35.6,30.11,ENE,68,1.0,12.0,29,0.00,,,0.00,WeatherTracker,2013-02-08 20:10:00,
2013-02-08 14:16:00,69.4,34.9,30.11,ENE,72,3.0,12.0,28,0.00,,,0.00,WeatherTracker,2013-02-08 20:16:00,
2013-02-08 14:21:00,69.7,35.1,30.11,NNE,32,1.0,7.0,28,0.00,,,0.00,WeatherTracker,2013-02-08 20:21:00,
2013-02-08 14:26:00,69.7,36.0,30.10,ENE,73,1.0,7.0,29,0.00,,,0.00,WeatherTracker,2013-02-08 20:26:00,
2013-02-08 14:31:00,70.0,35.4,30.10,ENE,71,1.0,4.0,28,0.00,,,0.00,WeatherTracker,2013-02-08 20:31:00,
2013-02-08 14:36:00,70.3,34.7,30.10,ESE,102,0.0,4.0,27,0.00,,,0.00,WeatherTracker,2013-02-08 20:36:00,
2013-02-08 14:41:00,70.4,36.6,30.10,NE,44,2.0,4.0,29,0.00,,,0.00,WeatherTracker,2013-02-08 20:41:00,
2013-02-08 14:46:00,70.8,35.2,30.10,NE,49,1.0,7.0,27,0.00,,,0.00,WeatherTracker,2013-02-08 20:46:00,
2013-02-08 14:51:00,70.5,34.9,30.10,ENE,67,2.0,7.0,27,0.00,,,0.00,WeatherTracker,2013-02-08 20:51:00,
2013-02-08 14:56:00,70.4,35.7,30.10,NE,40,1.0,5.0,28,0.00,,,0.00,WeatherTracker,2013-02-08 20:56:00,
2013-02-08 15:01:00,70.7,36.9,30.10,NNE,27,1.0,4.0,29,0.00,,,0.00,WeatherTracker,2013-02-08 21:01:00,
2013-02-08 15:06:00,71.1,33.5,30.09,ENE,74,1.0,4.0,25,0.00,,,0.00,WeatherTracker,2013-02-08 21:06:00,
2013-02-08 15:11:00,70.5,34.0,30.09,NE,46,1.0,7.0,26,0.00,,,0.00,WeatherTracker,2013-02-08 21:11:00,
2013-02-08 15:16:00,70.4,33.9,30.09,ENE,73,3.0,7.0,26,0.00,,,0.00,WeatherTracker,2013-02-08 21:16:00,
2013-02-08 15:21:00,70.2,34.6,30.09,East,100,4.0,7.0,27,0.00,,,0.00,WeatherTracker,2013-02-08 21:21:00,
2013-02-08 15:26:00,70.5,34.0,30.09,East,95,0.0,7.0,26,0.00,,,0.00,WeatherTracker,2013-02-08 21:26:00,
2013-02-08 15:31:00,70.3,33.8,30.09,NE,47,3.0,6.0,26,0.00,,,0.00,WeatherTracker,2013-02-08 21:31:00,
2013-02-08 15:36:00,70.1,32.6,30.09,ENE,71,0.0,6.0,25,0.00,,,0.00,WeatherTracker,2013-02-08 21:36:00,
2013-02-08 15:42:00,70.1,33.6,30.09,NE,49,2.0,6.0,26,0.00,,,0.00,WeatherTracker,2013-02-08 21:42:00,
2013-02-08 15:47:00,70.2,32.7,30.09,SW,222,1.0,6.0,25,0.00,,,0.00,WeatherTracker,2013-02-08 21:47:00,
2013-02-08 15:52:00,70.3,31.8,30.09,SE,143,0.0,6.0,24,0.00,,,0.00,WeatherTracker,2013-02-08 21:52:00,
2013-02-08 15:57:00,70.3,31.8,30.09,East,96,0.0,5.0,24,0.00,,,0.00,WeatherTracker,2013-02-08 21:57:00,
2013-02-08 16:02:00,69.7,32.3,30.09,ENE,71,3.0,8.0,25,0.00,,,0.00,WeatherTracker,2013-02-08 22:02:00,
2013-02-08 16:07:00,69.3,32.0,30.09,ENE,59,1.0,8.0,25,0.00,,,0.00,WeatherTracker,2013-02-08 22:07:00,
2013-02-08 16:12:00,69.4,32.0,30.09,NE,51,0.0,7.0,25,0.00,,,0.00,WeatherTracker,2013-02-08 22:12:00,
2013-02-08 16:17:00,69.2,31.9,30.08,NNE,19,0.0,5.0,25,0.00,,,0.00,WeatherTracker,2013-02-08 22:17:00,
2013-02-08 16:22:00,68.6,32.3,30.08,East,93,0.0,5.0,26,0.00,,,0.00,WeatherTracker,2013-02-08 22:22:00,
2013-02-08 16:27:00,68.0,31.8,30.08,East,92,1.0,4.0,26,0.00,,,0.00,WeatherTracker,2013-02-08 22:27:00,
2013-02-08 16:32:00,67.6,31.5,30.08,ENE,59,0.0,3.0,26,0.00,,,0.00,WeatherTracker,2013-02-08 22:32:00,
2013-02-08 16:37:00,67.4,32.3,30.08,East,84,1.0,4.0,27,0.00,,,0.00,WeatherTracker,2013-02-08 22:37:00,
2013-02-08 16:42:00,67.2,31.2,30.08,ENE,77,1.0,4.0,26,0.00,,,0.00,WeatherTracker,2013-02-08 22:42:00,
2013-02-08 16:47:00,67.1,31.1,30.08,East,80,1.0,4.0,26,0.00,,,0.00,WeatherTracker,2013-02-08 22:47:00,
2013-02-08 16:52:00,67.0,31.9,30.08,East,95,0.0,5.0,27,0.00,,,0.00,WeatherTracker,2013-02-08 22:52:00,
2013-02-08 16:57:00,66.9,31.8,30.08,ENE,68,0.0,5.0,27,0.00,,,0.00,WeatherTracker,2013-02-08 22:57:00,
2013-02-08 17:02:00,66.9,31.8,30.08,ENE,77,0.0,4.0,27,0.00,,,0.00,WeatherTracker,2013-02-08 23:02:00,
2013-02-08 17:07:00,66.7,31.7,30.08,ENE,70,2.0,4.0,27,0.00,,,0.00,WeatherTracker,2013-02-08 23:07:00,
2013-02-08 17:13:00,66.7,31.7,30.08,NE,54,2.0,3.0,27,0.00,,,0.00,WeatherTracker,2013-02-08 23:13:00,
2013-02-08 17:18:00,66.8,31.7,30.07,ENE,70,0.0,4.0,27,0.00,,,0.00,WeatherTracker,2013-02-08 23:18:00,
2013-02-08 17:23:00,66.7,31.7,30.08,East,79,3.0,4.0,27,0.00,,,0.00,WeatherTracker,2013-02-08 23:23:00,
2013-02-08 17:28:00,66.7,32.6,30.07,ENE,77,0.0,4.0,28,0.00,,,0.00,WeatherTracker,2013-02-08 23:28:00,
2013-02-08 17:33:00,66.5,32.4,30.07,ENE,65,0.0,3.0,28,0.00,,,0.00,WeatherTracker,2013-02-08 23:33:00,
2013-02-08 17:38:00,66.4,32.3,30.07,NE,56,0.0,2.0,28,0.00,,,0.00,WeatherTracker,2013-02-08 23:38:00,
2013-02-08 17:43:00,66.2,32.1,30.08,NE,52,0.0,2.0,28,0.00,,,0.00,WeatherTracker,2013-02-08 23:43:00,
2013-02-08 17:48:00,66.1,32.9,30.08,ENE,63,0.0,4.0,29,0.00,,,0.00,WeatherTracker,2013-02-08 23:48:00,
2013-02-08 17:53:00,65.9,32.7,30.08,East,90,0.0,4.0,29,0.00,,,0.00,WeatherTracker,2013-02-08 23:53:00,
2013-02-08 17:58:00,65.7,32.6,30.08,ENE,72,0.0,2.0,29,0.00,,,0.00,WeatherTracker,2013-02-08 23:58:00,
2013-02-08 18:03:00,65.5,32.4,30.08,ENE,66,1.0,1.0,29,0.00,,,0.00,WeatherTracker,2013-02-09 00:03:00,
2013-02-08 18:08:00,65.2,33.0,30.08,East,100,0.0,1.0,30,0.00,,,0.00,WeatherTracker,2013-02-09 00:08:00,
2013-02-08 18:13:00,64.9,32.7,30.08,East,91,0.0,1.0,30,0.00,,,0.00,WeatherTracker,2013-02-09 00:13:00,
2013-02-08 18:18:00,64.5,33.2,30.08,East,91,0.0,1.0,31,0.00,,,0.00,WeatherTracker,2013-02-09 00:18:00,
2013-02-08 18:23:00,64.1,32.8,30.08,East,96,0.0,1.0,31,0.00,,,0.00,WeatherTracker,2013-02-09 00:23:00,
2013-02-08 18:28:00,63.6,33.2,30.07,East,96,0.0,1.0,32,0.00,,,0.00,WeatherTracker,2013-02-09 00:28:00,
2013-02-08 18:33:00,63.3,32.9,30.08,East,96,0.0,1.0,32,0.00,,,0.00,WeatherTracker,2013-02-09 00:33:00,
2013-02-08 18:38:00,62.8,33.3,30.08,East,96,0.0,0.0,33,0.00,,,0.00,WeatherTracker,2013-02-09 00:38:00,
2013-02-08 18:44:00,62.4,33.7,30.08,East,96,0.0,0.0,34,0.00,,,0.00,WeatherTracker,2013-02-09 00:44:00,
2013-02-08 18:49:00,62.3,33.6,30.07,East,96,0.0,0.0,34,0.00,,,0.00,WeatherTracker,2013-02-09 00:49:00,
2013-02-08 18:54:00,62.3,33.6,30.07,East,96,0.0,0.0,34,0.00,,,0.00,WeatherTracker,2013-02-09 00:54:00,
2013-02-08 18:59:00,62.1,34.1,30.08,East,96,0.0,0.0,35,0.00,,,0.00,WeatherTracker,2013-02-09 00:59:00,
2013-02-08 19:04:00,61.8,33.1,30.07,East,96,0.0,0.0,34,0.00,,,0.00,WeatherTracker,2013-02-09 01:04:00,
2013-02-08 19:09:00,61.8,33.1,30.07,East,96,0.0,0.0,34,0.00,,,0.00,WeatherTracker,2013-02-09 01:09:00,
2013-02-08 19:14:00,61.7,33.0,30.07,East,96,0.0,0.0,34,0.00,,,0.00,WeatherTracker,2013-02-09 01:14:00,
2013-02-08 19:19:00,61.8,33.1,30.07,East,82,0.0,0.0,34,0.00,,,0.00,WeatherTracker,2013-02-09 01:19:00,
2013-02-08 19:24:00,61.8,33.1,30.07,East,82,0.0,0.0,34,0.00,,,0.00,WeatherTracker,2013-02-09 01:24:00,
2013-02-08 19:29:00,61.6,33.0,30.07,East,82,0.0,0.0,34,0.00,,,0.00,WeatherTracker,2013-02-09 01:29:00,
2013-02-08 19:34:00,61.6,33.0,30.07,East,87,0.0,1.0,34,0.00,,,0.00,WeatherTracker,2013-02-09 01:34:00,
2013-02-08 19:39:00,61.5,32.9,30.07,ENE,68,0.0,1.0,34,0.00,,,0.00,WeatherTracker,2013-02-09 01:39:00,
2013-02-08 19:44:00,61.5,32.9,30.07,ENE,68,0.0,1.0,34,0.00,,,0.00,WeatherTracker,2013-02-09 01:44:00,
2013-02-08 19:49:00,61.3,32.7,30.07,ENE,69,0.0,1.0,34,0.00,,,0.00,WeatherTracker,2013-02-09 01:49:00,
2013-02-08 19:54:00,61.1,33.2,30.07,ENE,69,0.0,0.0,35,0.00,,,0.00,WeatherTracker,2013-02-09 01:54:00,
2013-02-08 19:59:00,60.8,33.0,30.07,ENE,68,0.0,0.0,35,0.00,,,0.00,WeatherTracker,2013-02-09 01:59:00,
2013-02-08 20:04:00,60.7,32.9,30.07,ENE,63,0.0,1.0,35,0.00,,,0.00,WeatherTracker,2013-02-09 02:04:00,
2013-02-08 20:10:00,60.6,33.5,30.07,ENE,62,0.0,1.0,36,0.00,,,0.00,WeatherTracker,2013-02-09 02:10:00,
2013-02-08 20:15:00,60.5,32.7,30.08,ENE,63,0.0,1.0,35,0.00,,,0.00,WeatherTracker,2013-02-09 02:15:00,
2013-02-08 20:20:00,60.4,33.3,30.08,ENE,63,0.0,1.0,36,0.00,,,0.00,WeatherTracker,2013-02-09 02:20:00,
2013-02-08 20:25:00,60.3,33.2,30.08,East,82,0.0,1.0,36,0.00,,,0.00,WeatherTracker,2013-02-09 02:25:00,
2013-02-08 20:30:00,60.2,33.1,30.08,East,81,0.0,1.0,36,0.00,,,0.00,WeatherTracker,2013-02-09 02:30:00,
2013-02-08 20:35:00,59.9,33.6,30.08,East,80,0.0,0.0,37,0.00,,,0.00,WeatherTracker,2013-02-09 02:35:00,
2013-02-08 20:40:00,59.7,33.4,30.08,East,81,0.0,0.0,37,0.00,,,0.00,WeatherTracker,2013-02-09 02:40:00,
2013-02-08 20:45:00,59.4,33.8,30.08,East,81,0.0,0.0,38,0.00,,,0.00,WeatherTracker,2013-02-09 02:45:00,
2013-02-08 20:50:00,59.1,33.5,30.08,East,81,0.0,0.0,38,0.00,,,0.00,WeatherTracker,2013-02-09 02:50:00,
2013-02-08 20:55:00,58.7,34.4,30.09,East,80,0.0,0.0,40,0.00,,,0.00,WeatherTracker,2013-02-09 02:55:00,
2013-02-08 21:00:00,58.2,34.0,30.09,East,81,0.0,0.0,40,0.00,,,0.00,WeatherTracker,2013-02-09 03:00:00,
2013-02-08 21:05:00,57.8,34.3,30.09,East,81,0.0,0.0,41,0.00,,,0.00,WeatherTracker,2013-02-09 03:05:00,
2013-02-08 21:10:00,57.5,35.2,30.09,East,81,0.0,0.0,43,0.00,,,0.00,WeatherTracker,2013-02-09 03:10:00,
2013-02-08 21:15:00,57.7,34.8,30.09,East,81,0.0,0.0,42,0.00,,,0.00,WeatherTracker,2013-02-09 03:15:00,
2013-02-08 21:21:00,57.6,35.3,30.09,East,81,0.0,0.0,43,0.00,,,0.00,WeatherTracker,2013-02-09 03:21:00,
2013-02-08 21:26:00,57.6,35.3,30.09,East,81,0.0,0.0,43,0.00,,,0.00,WeatherTracker,2013-02-09 03:26:00,
2013-02-08 21:31:00,57.6,35.3,30.09,East,81,0.0,0.0,43,0.00,,,0.00,WeatherTracker,2013-02-09 03:31:00,
2013-02-08 21:36:00,57.5,35.2,30.09,East,81,0.0,0.0,43,0.00,,,0.00,WeatherTracker,2013-02-09 03:36:00,
2013-02-08 21:41:00,57.3,36.1,30.09,East,81,0.0,0.0,45,0.00,,,0.00,WeatherTracker,2013-02-09 03:41:00,
2013-02-08 21:46:00,57.0,35.9,30.09,East,81,0.0,0.0,45,0.00,,,0.00,WeatherTracker,2013-02-09 03:46:00,
2013-02-08 21:51:00,56.7,36.7,30.08,East,80,0.0,0.0,47,0.00,,,0.00,WeatherTracker,2013-02-09 03:51:00,
2013-02-08 21:56:00,56.6,36.6,30.08,East,81,0.0,0.0,47,0.00,,,0.00,WeatherTracker,2013-02-09 03:56:00,
2013-02-08 22:01:00,56.5,36.5,30.08,East,80,0.0,0.0,47,0.00,,,0.00,WeatherTracker,2013-02-09 04:01:00,
2013-02-08 22:06:00,56.2,36.8,30.08,East,81,0.0,0.0,48,0.00,,,0.00,WeatherTracker,2013-02-09 04:06:00,
2013-02-08 22:11:00,55.9,36.5,30.08,East,81,0.0,0.0,48,0.00,,,0.00,WeatherTracker,2013-02-09 04:11:00,
2013-02-08 22:16:00,55.9,36.5,30.08,East,81,0.0,0.0,48,0.00,,,0.00,WeatherTracker,2013-02-09 04:16:00,
2013-02-08 22:21:00,56.0,36.6,30.08,East,80,0.0,0.0,48,0.00,,,0.00,WeatherTracker,2013-02-09 04:21:00,
2013-02-08 22:26:00,56.2,36.8,30.08,East,81,0.0,0.0,48,0.00,,,0.00,WeatherTracker,2013-02-09 04:26:00,
2013-02-08 22:31:00,56.1,36.7,30.08,East,81,0.0,0.0,48,0.00,,,0.00,WeatherTracker,2013-02-09 04:31:00,
2013-02-08 22:36:00,56.2,36.8,30.08,East,81,0.0,0.0,48,0.00,,,0.00,WeatherTracker,2013-02-09 04:36:00,
2013-02-08 22:41:00,56.1,36.7,30.08,East,80,0.0,0.0,48,0.00,,,0.00,WeatherTracker,2013-02-09 04:41:00,
2013-02-08 22:47:00,55.9,37.0,30.08,East,80,0.0,0.0,49,0.00,,,0.00,WeatherTracker,2013-02-09 04:47:00,
2013-02-08 22:52:00,56.0,37.1,30.08,East,80,0.0,0.0,49,0.00,,,0.00,WeatherTracker,2013-02-09 04:52:00,
2013-02-08 22:57:00,56.1,37.2,30.08,East,80,0.0,0.0,49,0.00,,,0.00,WeatherTracker,2013-02-09 04:57:00,
2013-02-08 23:00:00,56.1,37.2,30.08,East,81,0.0,0.0,49,0.00,,,0.00,WeatherTracker,2013-02-09 05:00:00,
2013-02-08 23:05:00,55.9,37.0,30.08,East,81,0.0,0.0,49,0.00,,,0.00,WeatherTracker,2013-02-09 05:05:00,
2013-02-08 23:10:00,55.7,36.8,30.07,East,81,0.0,0.0,49,0.00,,,0.00,WeatherTracker,2013-02-09 05:10:00,
2013-02-08 23:15:00,55.5,37.2,30.07,East,80,0.0,0.0,50,0.00,,,0.00,WeatherTracker,2013-02-09 05:15:00,
2013-02-08 23:20:00,55.3,37.5,30.07,East,80,0.0,0.0,51,0.00,,,0.00,WeatherTracker,2013-02-09 05:20:00,
2013-02-08 23:25:00,55.4,37.6,30.07,East,89,0.0,1.0,51,0.00,,,0.00,WeatherTracker,2013-02-09 05:25:00,
2013-02-08 23:30:00,55.4,37.6,30.08,ENE,73,0.0,1.0,51,0.00,,,0.00,WeatherTracker,2013-02-09 05:30:00,
2013-02-08 23:35:00,55.2,37.9,30.08,ENE,73,0.0,1.0,52,0.00,,,0.00,WeatherTracker,2013-02-09 05:35:00,
2013-02-08 23:40:00,55.4,38.1,30.08,ENE,73,0.0,1.0,52,0.00,,,0.00,WeatherTracker,2013-02-09 05:40:00,
2013-02-08 23:45:00,55.5,37.7,30.07,ENE,73,0.0,1.0,51,0.00,,,0.00,WeatherTracker,2013-02-09 05:45:00,
2013-02-08 23:50:00,55.5,38.2,30.07,East,80,0.0,0.0,52,0.00,,,0.00,WeatherTracker,2013-02-09 05:50:00,
2013-02-08 23:56:00,55.4,38.1,30.07,East,81,0.0,0.0,52,0.00,,,0.00,WeatherTracker,2013-02-09 05:56:00,